ROMMA est une association bénévole à but non lucratif. Votre soutien est indispensable : ADHERER à ROMMA ou FAIRE un DON

Arâches-la-Frasse - (74, Haute-Savoie)

Domaine du Grand Massif (1120 m)   Longitude: 06° 38' 33" E   Latitude: 46° 02' 45" N Station partenaire n°39
 

Détail journalier du     <<     >>

Température Humidité Vent Dir Rafale Dir. rafale Ensol.
Heure (°C) (%) (km/h) (km/h) (min)
01:00 12.0576ENE13ENE0
02:00 11.7606E15ESE0
03:00 11.4586E13ESE0
04:00 11.8585E15ESE0
05:00 10.4656ENE15NE0
06:00 10.6646ENE15NE0
07:00 10.2634ENE13NNE0
08:00 10.0666ENE11ENE0
09:00 10.8664NE11ENE0
10:00 12.1664ENE11ENE0
11:00 14.4632N8NNE60
12:00 15.4551N6N0
13:00 16.1591N8N30
14:00 16.1571N8N0
15:00 15.1632NO11NO0
16:00 15.7621NO6NNO30
17:00 14.8691NO8ESE0
18:00 15.1683SE15SO60
19:00 14.7723SSO16S30
20:00 14.6743SE18SSO0
21:00 14.5733ESE15OSO0
22:00 13.8753ENE10E0
23:00 13.7763ENE10E0
minuit 13.2775ENE11NE0

Graphique du 12-10-2019

 

Serveur OMMA